TimeCDT,TemperatureF,Dew PointF,Humidity,Sea Level PressureIn,VisibilityMPH,Wind Direction,Wind SpeedMPH,Gust SpeedMPH,PrecipitationIn,Events,Conditions,WindDirDegrees,DateUTC
12:53 AM,37.9,30.0,73,30.05,10.0,WNW,3.5,-,N/A,,Clear,300,2012-11-01 05:53:00
1:53 AM,35.1,30.0,82,30.05,10.0,NW,5.8,-,N/A,,Clear,320,2012-11-01 06:53:00
2:53 AM,35.1,30.0,82,30.04,10.0,NW,4.6,-,N/A,,Clear,310,2012-11-01 07:53:00
3:53 AM,33.8,28.4,81,30.04,10.0,Calm,Calm,-,N/A,,Clear,0,2012-11-01 08:53:00
4:53 AM,30.9,27.0,85,30.04,10.0,WNW,4.6,-,N/A,,Clear,300,2012-11-01 09:53:00
5:53 AM,30.2,28.4,93,30.05,10.0,NW,4.6,-,N/A,,Clear,320,2012-11-01 10:53:00
6:53 AM,30.2,28.4,93,30.05,10.0,NW,5.8,-,N/A,,Clear,310,2012-11-01 11:53:00
7:53 AM,28.9,26.1,89,30.09,10.0,WNW,3.5,-,N/A,,Clear,290,2012-11-01 12:53:00
8:53 AM,32.0,28.9,88,30.09,10.0,Calm,Calm,-,N/A,,Clear,0,2012-11-01 13:53:00
9:53 AM,41.0,35.1,79,30.08,10.0,Calm,Calm,-,N/A,,Clear,0,2012-11-01 14:53:00
10:53 AM,48.0,37.9,68,30.06,10.0,Calm,Calm,-,N/A,,Clear,0,2012-11-01 15:53:00
11:53 AM,55.9,39.0,53,30.04,10.0,SE,4.6,-,N/A,,Clear,130,2012-11-01 16:53:00
12:53 PM,62.1,39.0,43,30.00,10.0,ESE,8.1,-,N/A,,Clear,110,2012-11-01 17:53:00
1:53 PM,64.4,39.2,40,29.97,10.0,ESE,6.9,-,N/A,,Clear,110,2012-11-01 18:53:00
2:53 PM,66.2,39.2,37,29.94,10.0,SE,9.2,-,N/A,,Clear,130,2012-11-01 19:53:00
3:53 PM,68.0,39.9,36,29.92,10.0,ESE,12.7,-,N/A,,Clear,110,2012-11-01 20:53:00
4:53 PM,68.0,37.0,32,29.90,10.0,SSE,9.2,-,N/A,,Clear,150,2012-11-01 21:53:00
5:53 PM,64.0,37.0,37,29.90,10.0,SSE,9.2,-,N/A,,Clear,150,2012-11-01 22:53:00
6:53 PM,55.0,39.0,55,29.93,10.0,ESE,9.2,-,N/A,,Clear,110,2012-11-01 23:53:00
7:53 PM,52.0,39.0,61,29.92,10.0,East,11.5,-,N/A,,Clear,100,2012-11-02 00:53:00
8:53 PM,46.9,37.9,71,29.92,10.0,ESE,9.2,-,N/A,,Clear,110,2012-11-02 01:53:00
9:53 PM,45.0,37.9,76,29.91,10.0,ESE,9.2,-,N/A,,Clear,110,2012-11-02 02:53:00
10:53 PM,42.1,37.0,82,29.90,9.0,ESE,10.4,-,N/A,,Clear,110,2012-11-02 03:53:00
11:53 PM,42.1,37.0,82,29.88,8.0,ESE,5.8,-,N/A,,Clear,110,2012-11-02 04:53:00